{"data":{"norad_id":66802,"epoch":"2026-09-20T06:10:24.007584Z","epoch_age_seconds":107482,"freshness":"FRESH","line1":"1 66802U 25278M   26263.25722231  .00012719  00000+0  47097-3 0  9998","line2":"2 66802  43.0017  95.7248 0000330 285.0222  75.0593 15.27577195 44962","mean_motion":15.27577195,"eccentricity":3.3e-5,"inclination_deg":43.0017,"raan_deg":95.7248,"arg_perigee_deg":285.0222,"mean_anomaly_deg":75.0593,"bstar":0.00047097,"rev_number":4496,"period_min":94.266921810128,"perigee_km":482.83107581326,"apogee_km":483.28391464994,"semimajor_km":6861.1944952316,"source":"CELESTRAK","updated_at":"2026-09-21T09:00:36.015594Z"}}